When you browse on this site, cookies collect data to enhance your experience and personalize the content and advertising you see.
Visit our Privacy Policy to learn more. By continuing to use the site, you agree to this use of cookies and data.
  • In France
  • List of Countries
  • For 7 days
  • Water Temperature
  • Weather Map
  • Weather Widgets
  • user-avatar
    Login

    Hourly Weather Gwarek

    Today, 16 February, Sunday

    Time Temperature Precipitation Wind Pressure Humidity
    00:00 0°C° 0 mm 4 mps 747 mmHg 83%
    01:00 0°C° 0 mm 4 mps 747 mmHg 84%
    02:00 0°C° 0 mm 4 mps 747 mmHg 82%
    03:00 0°C° 0 mm 5 mps 747 mmHg 81%
    04:00 +1°C° 0 mm 5 mps 746 mmHg 80%
    05:00 +1°C° 0 mm 5 mps 746 mmHg 78%
    06:00 +1°C° 0 mm 6 mps 746 mmHg 77%
    07:00 +1°C° 0 mm 6 mps 746 mmHg 75%
    08:00 +2°C° 0 mm 6 mps 745 mmHg 70%
    09:00 +3°C° 0 mm 7 mps 745 mmHg 66%
    10:00 +4°C° 0 mm 7 mps 745 mmHg 61%
    11:00 +5°C° 0 mm 7 mps 744 mmHg 57%
    12:00 +6°C° 0 mm 8 mps 744 mmHg 54%
    13:00 +9°C° 0 mm 8 mps 743 mmHg 50%
    14:00 +8°C° 0 mm 7 mps 743 mmHg 50%
    15:00 +8°C° 0 mm 7 mps 743 mmHg 50%
    16:00 +8°C° 0 mm 7 mps 742 mmHg 51%
    17:00 +8°C° 0 mm 7 mps 742 mmHg 52%
    18:00 +6°C° 0 mm 7 mps 742 mmHg 53%
    19:00 +6°C° 0 mm 7 mps 742 mmHg 55%
    20:00 +6°C° 0 mm 7 mps 741 mmHg 54%
    21:00 +6°C° 0 mm 7 mps 741 mmHg 53%
    22:00 +6°C° 0 mm 7 mps 741 mmHg 53%
    23:00 +6°C° 0 mm 7 mps 740 mmHg 53%

    Tomorrow, 17 February, Monday

    Time Temperature Precipitation Wind Pressure Humidity
    00:00 +6°C° 0 mm 7 mps 740 mmHg 53%
    01:00 +5°C° 0 mm 7 mps 740 mmHg 53%
    02:00 +5°C° 0 mm 7 mps 740 mmHg 54%
    03:00 +5°C° 0 mm 7 mps 740 mmHg 54%
    04:00 +5°C° 0 mm 8 mps 740 mmHg 54%
    05:00 +5°C° 0 mm 7 mps 740 mmHg 55%
    06:00 +6°C° 0 mm 7 mps 741 mmHg 55%
    07:00 +6°C° 0 mm 7 mps 741 mmHg 56%
    08:00 +6°C° 0 mm 7 mps 741 mmHg 56%
    09:00 +8°C° 0 mm 7 mps 742 mmHg 57%
    10:00 +8°C° 0 mm 7 mps 742 mmHg 57%
    11:00 +9°C° 0 mm 6 mps 742 mmHg 59%
    12:00 +9°C° 0 mm 5 mps 742 mmHg 60%
    13:00 +10°C° 0 mm 5 mps 742 mmHg 62%
    14:00 +11°C° 0 mm 4 mps 742 mmHg 64%
    15:00 +10°C° 0 mm 4 mps 742 mmHg 67%
    16:00 +10°C° 0 mm 3 mps 742 mmHg 69%
    17:00 +9°C° 0 mm 3 mps 742 mmHg 72%
    18:00 +9°C° 0 mm 3 mps 742 mmHg 74%
    19:00 +8°C° 0 mm 3 mps 742 mmHg 76%
    20:00 +8°C° 0.1 mm 2 mps 742 mmHg 79%
    21:00 +8°C° 0.1 mm 2 mps 742 mmHg 81%
    22:00 +7°C° 0.1 mm 2 mps 741 mmHg 84%
    23:00 +7°C° 1 mm 2 mps 741 mmHg 87%

    Day after tomorrow, 18 February, Tuesday

    Time Temperature Precipitation Wind Pressure Humidity
    00:00 +7°C° 1 mm 2 mps 741 mmHg 90%
    01:00 +7°C° 1 mm 2 mps 741 mmHg 94%
    02:00 +7°C° 1 mm 2 mps 741 mmHg 94%
    03:00 +7°C° 1 mm 2 mps 741 mmHg 94%
    04:00 +7°C° 1 mm 3 mps 741 mmHg 94%
    05:00 +5°C° 0.2 mm 3 mps 742 mmHg 92%
    06:00 +5°C° 0.2 mm 3 mps 742 mmHg 91%
    07:00 +5°C° 0.2 mm 4 mps 742 mmHg 90%
    08:00 +5°C° 0.3 mm 5 mps 743 mmHg 84%
    09:00 +5°C° 0.3 mm 6 mps 743 mmHg 77%
    10:00 +5°C° 0.3 mm 7 mps 743 mmHg 71%
    11:00 +5°C° 0 mm 7 mps 743 mmHg 67%
    12:00 +6°C° 0 mm 7 mps 744 mmHg 64%
    13:00 +6°C° 0 mm 7 mps 744 mmHg 60%
    14:00 +6°C° 0 mm 7 mps 744 mmHg 60%
    15:00 +7°C° 0 mm 6 mps 744 mmHg 59%
    16:00 +7°C° 0 mm 6 mps 744 mmHg 59%
    17:00 +6°C° 0 mm 5 mps 744 mmHg 62%
    18:00 +5°C° 0 mm 5 mps 744 mmHg 65%
    19:00 +4°C° 0 mm 4 mps 745 mmHg 69%
    20:00 +4°C° 0 mm 4 mps 745 mmHg 70%
    21:00 +3°C° 0 mm 4 mps 745 mmHg 72%
    22:00 +3°C° 0 mm 3 mps 745 mmHg 73%
    23:00 +2°C° 0 mm 3 mps 745 mmHg 75%

    19 February, Wednesday

    Time Temperature Precipitation Wind Pressure Humidity
    00:00 +1°C° 0 mm 4 mps 745 mmHg 76%
    01:00 +1°C° 0 mm 4 mps 745 mmHg 77%
    02:00 0°C° 0 mm 4 mps 745 mmHg 79%
    03:00 0°C° 0 mm 4 mps 744 mmHg 81%
    04:00 0°C° 0 mm 4 mps 744 mmHg 84%
    05:00 0°C° 0 mm 4 mps 744 mmHg 84%
    06:00 0°C° 0 mm 4 mps 743 mmHg 84%
    07:00 -1°C° 0 mm 4 mps 743 mmHg 84%
    08:00 0°C° 0 mm 5 mps 743 mmHg 80%
    09:00 +1°C° 0 mm 5 mps 743 mmHg 75%
    10:00 +2°C° 0 mm 6 mps 743 mmHg 70%
    11:00 +3°C° 0 mm 6 mps 742 mmHg 68%
    12:00 +3°C° 0 mm 6 mps 742 mmHg 65%
    13:00 +4°C° 0 mm 6 mps 741 mmHg 62%
    14:00 +4°C° 0 mm 6 mps 741 mmHg 65%
    15:00 +3°C° 0 mm 5 mps 740 mmHg 69%
    16:00 +3°C° 0 mm 5 mps 740 mmHg 72%
    17:00 +3°C° 0.1 mm 5 mps 740 mmHg 76%
    18:00 +2°C° 0.1 mm 5 mps 740 mmHg 80%
    19:00 +2°C° 0.1 mm 5 mps 740 mmHg 85%
    20:00 +2°C° 0.1 mm 5 mps 740 mmHg 83%
    21:00 +1°C° 0.1 mm 5 mps 741 mmHg 81%
    22:00 +1°C° 0.1 mm 5 mps 741 mmHg 79%
    23:00 0°C° 0 mm 5 mps 741 mmHg 79%

    20 February, Thursday

    Time Temperature Precipitation Wind Pressure Humidity
    00:00 0°C° 0 mm 4 mps 742 mmHg 79%
    01:00 0°C° 0 mm 4 mps 742 mmHg 80%
    02:00 -1°C° 0 mm 4 mps 742 mmHg 83%
    03:00 -1°C° 0 mm 4 mps 742 mmHg 86%
    04:00 -2°C° 0 mm 4 mps 742 mmHg 90%
    05:00 -2°C° 0 mm 4 mps 743 mmHg 91%
    06:00 -1°C° 0 mm 4 mps 743 mmHg 92%
    07:00 -1°C° 0 mm 4 mps 744 mmHg 92%
    08:00 0°C° 0 mm 4 mps 744 mmHg 87%
    09:00 0°C° 0 mm 4 mps 744 mmHg 81%
    10:00 +1°C° 0 mm 4 mps 745 mmHg 76%
    11:00 +1°C° 0 mm 4 mps 745 mmHg 73%
    12:00 +1°C° 0 mm 4 mps 745 mmHg 70%
    13:00 +3°C° 0 mm 4 mps 745 mmHg 68%
    14:00 +3°C° 0 mm 4 mps 745 mmHg 66%
    15:00 +3°C° 0 mm 4 mps 745 mmHg 64%
    16:00 +3°C° 0 mm 3 mps 745 mmHg 63%
    17:00 +2°C° 0 mm 3 mps 745 mmHg 66%
    18:00 +3°C° 0 mm 2 mps 745 mmHg 70%
    19:00 +2°C° 0 mm 2 mps 745 mmHg 73%
    20:00 +1°C° 0 mm 2 mps 745 mmHg 74%
    21:00 +1°C° 0 mm 2 mps 745 mmHg 75%
    22:00 0°C° 0 mm 3 mps 745 mmHg 76%
    23:00 0°C° 0 mm 3 mps 744 mmHg 75%

    21 February, Friday

    Time Temperature Precipitation Wind Pressure Humidity
    00:00 0°C° 0 mm 3 mps 744 mmHg 75%
    01:00 -1°C° 0 mm 4 mps 744 mmHg 74%
    02:00 -1°C° 0 mm 4 mps 743 mmHg 72%
    03:00 -1°C° 0 mm 4 mps 743 mmHg 70%
    04:00 -1°C° 0 mm 5 mps 742 mmHg 69%
    05:00 -1°C° 0 mm 5 mps 742 mmHg 73%
    06:00 -1°C° 0 mm 5 mps 741 mmHg 78%
    07:00 -1°C° 0 mm 5 mps 741 mmHg 82%
    14:00 +2°C° 0.5 mm 6 mps 741 mmHg 88%
    15:00 +2°C° 0.5 mm 6 mps 742 mmHg 82%
    16:00 +2°C° 0.5 mm 6 mps 742 mmHg 77%
    17:00 +1°C° 0 mm 6 mps 743 mmHg 76%
    18:00 +1°C° 0 mm 6 mps 744 mmHg 74%
    19:00 +1°C° 0 mm 5 mps 745 mmHg 73%
    20:00 +1°C° 0 mm 5 mps 746 mmHg 77%
    21:00 0°C° 0 mm 5 mps 746 mmHg 82%
    22:00 0°C° 0 mm 4 mps 747 mmHg 86%
    23:00 0°C° 0 mm 4 mps 747 mmHg 86%
    Show more